sat.trackr.live / text

‹ back to catalog

SES-10

NORAD 42432 · 2017-017A

PAYLOAD ACTIVE UNKNOWN

§ Identity

Operator
Country
SES
Launch date
2017-03-30
Launch site
AFETR
Launch vehicle
Mass (kg)
RCS (m²)
6.49

Purposes: comms

External: N2YO · Heavens-Above · Gunter

§ Orbital elements

Epoch: 2026-09-19T11:31:15.762720Z

Period
1,436.08 min
Inclination
0.0168°
Eccentricity
0.0002824
Mean motion
1.00272759 rev/d
Perigee alt
35,774.4 km
Apogee alt
35,798.2 km
Semi-major
42,164.5 km
B*
0.0000e+0
RAAN
111.7672°
Arg perigee
66.7932°
Mean anomaly
285.7639°
Rev number
3,470

§ Raw data

SES-101 42432U 17017A   26262.48004355 -.00000277  00000+0  00000+0 0  99932 42432   0.0168 111.7672 0002824  66.7932 285.7639  1.00272759 34703

JSON: /api/v1/satellites/42432 · /tle

For live sub-satellite position, see the globe view (requires WebGL).

§ Visibility from observer

Set your observer location to see the next 7 days of passes ≥ 10°. The values pass through the URL so the page stays shareable.

No JS? Fill the form by hand. The geolocation button needs JavaScript.